Flag for Germany Weather past 2 weeks in Singen (Hohentwiel), Baden-Württemberg, Germany

Now
78 °F

Passing clouds.


Feels Like: 79 °F
Forecast: 48 / 80 °F
Wind: 6 mph from West

Location: Konstanz

Current Time: Jun 2, 2015 at 3:36:32 PM

Latest Report: Jun 2, 2015 at 3:00 PM


Visibility: 31 mi

Pressure: 30.03 "Hg

Humidity: 42%

Dew point: 53 °F

Location of Singen (Hohentwiel)Location

Historic Weather in Singen (Hohentwiel) — Graph

°F

Singen (Hohentwiel) temperature yesterday

Maximum temperature yesterday: 75 °F (at 5:00 PM)
Minimum temperature yesterday: 58 °F (at 6:00 AM)
Average temperature yesterday: 67 °F

Past Weeks' High & Low Weather Summary

 TemperatureHumidityPressure
High75 °F (May 18, 5:00 PM)97% (May 21, 4:00 AM)30.33 "Hg (May 21, 4:00 AM)
Low44 °F (May 28, 5:00 AM)26% (May 28, 5:00 PM)29.70 "Hg (May 18, 7:00 PM)
Average58 °F70%30.04 "Hg
* Reported May 18 2:00 PM — Jun 2 2:00 PM, Singen (Hohentwiel), Weather by CustomWeather, © 2015

Note: Actual official high and low records may vary slightly from our data, if they occured in-between our weather recording intervals... More about our weather records

Advertising

Singen (Hohentwiel) weather history for previous 24 hours

 ConditionsComfort  
Time TempWeatherWind HumidityBarometerVisibility
2:00 PM
Tue, Jun 2
75 °FScattered clouds.5 mph49%30.05 "Hg31 mi
1:00 PM73 °FScattered clouds.5 mph54%30.07 "Hg31 mi
12:00 PM71 °FScattered clouds.5 mph57%30.08 "Hg28 mi
11:00 AM69 °FScattered clouds.3 mph64%30.09 "Hg25 mi
10:00 AM65 °FPartly sunny.2 mph76%30.10 "Hg25 mi
9:00 AM64 °FPartly sunny.1 mph75%30.09 "Hg31 mi
8:00 AM61 °FOvercast.1 mph86%30.09 "Hg25 mi
7:00 AM59 °FOvercast.1 mph88%30.08 "Hg19 mi
5:00 AM58 °FOvercast.1 mph92%30.07 "Hg14 mi
4:00 AM56 °FPassing clouds.1 mph92%30.07 "Hg19 mi
3:00 AM59 °FClear.1 mph88%30.06 "Hg19 mi
2:00 AM60 °FOvercast.1 mph85%30.06 "Hg18 mi
1:00 AM61 °FOvercast.2 mph81%30.06 "Hg22 mi
12:00 AM61 °FPassing clouds.2 mph80%30.06 "Hg25 mi
11:00 PM
Mon, Jun 1
63 °FPassing clouds.1 mph77%30.04 "Hg28 mi
10:00 PM66 °FLight rain. Overcast.3 mph66%30.03 "Hg12 mi
9:00 PM68 °FPassing clouds.3 mph61%30.01 "Hg37 mi
8:00 PM70 °FScattered clouds.5 mph56%29.99 "Hg37 mi
7:00 PM68 °FScattered clouds.5 mph68%29.99 "Hg31 mi
6:00 PM73 °FScattered clouds.5 mph52%29.97 "Hg28 mi
5:00 PM75 °FScattered clouds.6 mph48%29.96 "Hg25 mi
4:00 PM72 °FOvercast.3 mph54%29.97 "Hg25 mi
3:00 PM73 °FPartly sunny.7 mph47%29.97 "Hg25 mi
Weather by CustomWeather, © 2015

See weather overviewHow to use our weather pages